FW3241 Weather Reports


time (UTC)temp
C
wind
direction
speed
KPH
gust
KPH
rain 1hr
cm
rain 24hr
cm
rain mn
cm
humidity
%
barometer
mb
20260510063046 11 113 0.0 0.0 0.00 0.00 0.00 60 1014.7
20260510061546 12 113 0.0 3.2 0.00 0.00 0.00 60 1014.8
20260510060047 12 113 0.0 0.0 0.00 0.00 0.00 60 1015.1
20260510054539 12 113 0.0 0.0 0.00 0.00 0.00 59 1015.4
20260510053043 12 113 0.0 0.0 0.00 0.00 0.00 60 1015.5
20260510051543 12 113 0.0 0.0 0.00 0.00 0.00 60 1015.7
20260510050036 12 113 0.0 3.2 0.00 0.00 0.00 60 1015.5
20260510044546 12 112 0.0 1.6 0.00 0.00 0.00 59 1015.5
20260510043042 12 112 0.0 0.0 0.00 0.00 0.00 60 1015.3
20260510041534 12 112 0.0 0.0 0.00 0.00 0.00 60 1015.2
20260510040039 12 112 0.0 3.2 0.00 0.00 0.00 60 1015.3
20260510034529 12 112 0.0 3.2 0.00 0.00 0.00 61 1015.5
20260510033047 12 112 0.0 0.0 0.00 0.00 0.00 62 1015.3
20260510031528 12 112 0.0 0.0 0.00 0.00 0.00 62 1015.6
20260510030032 12 112 0.0 0.0 0.00 0.00 0.00 61 1015.4
20260510024526 12 112 0.0 0.0 0.00 0.00 0.00 61 1015.2
20260510023026 12 112 0.0 0.0 0.00 0.00 0.00 60 1015.1
20260510021527 12 111 0.0 0.0 0.00 0.00 0.00 59 1015.3
20260510020027 12 111 0.0 1.6 0.00 0.00 0.00 59 1014.9
20260510014528 12 82 0.0 0.0 0.00 0.00 0.00 59 1014.6
20260510013024 12 82 0.0 1.6 0.00 0.00 0.00 60 1014.4
20260510011525 12 82 0.0 0.0 0.00 0.00 0.00 60 1014.2
20260510010027 13 82 0.0 0.0 0.00 0.00 0.00 59 1014.2
20260510004523 13 82 0.0 0.0 0.00 0.00 0.00 58 1013.9
20260510003024 13 82 0.0 0.0 0.00 0.00 0.00 58 1013.7
20260510001522 13 82 0.0 0.0 0.00 0.00 0.00 57 1013.6
20260510000021 13 82 0.0 3.2 0.00 0.00 0.00 57 1013.4
20260509234530 14 82 1.6 3.2 0.00 0.00 0.00 56 1013.1
20260509233021 14 88 1.6 3.2 0.00 0.00 0.00 57 1012.9
20260509231521 15 88 0.0 3.2 0.00 0.00 0.00 57 1012.7
20260509230022 15 88 1.6 3.2 0.00 0.00 0.00 56 1012.6
20260509224518 16 88 0.0 3.2 0.00 0.00 0.00 57 1012.6
20260509223017 16 88 0.0 3.2 0.00 0.00 0.00 56 1012.6
20260509221518 17 89 0.0 3.2 0.00 0.00 0.00 53 1012.5
20260509220017 17 89 0.0 1.6 0.00 0.00 0.00 52 1012.4
20260509214515 18 89 0.0 4.8 0.00 0.00 0.00 47 1012.3
20260509213015 18 220 0.0 4.8 0.00 0.00 0.00 39 1012.0
20260509211513 18 223 1.6 3.2 0.00 0.00 0.00 38 1011.8
20260509210018 18 235 0.0 4.8 0.00 0.00 0.00 42 1012.1
20260509204514 18 212 1.6 6.4 0.00 0.00 0.00 44 1012.0
20260509203016 18 238 3.2 8.0 0.00 0.00 0.00 42 1012.1
20260509201510 18 238 0.0 6.4 0.00 0.00 0.00 40 1011.8
20260509200011 19 202 0.0 4.8 0.00 0.00 0.00 42 1012.0
20260509194508 19 242 3.2 6.4 0.00 0.00 0.00 39 1012.0
20260509193008 19 248 3.2 8.0 0.00 0.00 0.00 41 1012.2
20260509191509 19 232 3.2 6.4 0.00 0.00 0.00 42 1012.4
20260509190014 19 205 0.0 4.8 0.00 0.00 0.00 42 1012.1
20260509184508 20 240 3.2 11.3 0.00 0.00 0.00 42 1012.0
20260509183004 20 191 1.6 8.0 0.00 0.00 0.00 41 1011.9
20260509181501 20 255 4.8 8.0 0.00 0.00 0.00 38 1012.3
20260509180059 19 249 3.2 11.3 0.00 0.00 0.00 41 1012.2
20260509174601 18 242 1.6 12.9 0.00 0.00 0.00 40 1012.1
20260509173106 18 207 0.0 11.3 0.00 0.00 0.00 41 1012.1
20260509171612 17 191 1.6 11.3 0.00 0.00 0.00 46 1012.3
20260509170046 17 198 1.6 8.0 0.00 0.00 0.00 47 1012.8
20260509164541 16 236 0.0 4.8 0.00 0.00 0.00 46 1013.0
20260509163038 15 195 1.6 6.4 0.00 0.00 0.00 48 1013.0
20260509161536 14 180 1.6 9.7 0.00 0.00 0.00 52 1013.0
20260509160031 14 218 1.6 8.0 0.00 0.00 0.00 56 1013.0
20260509154534 13 195 1.6 6.4 0.00 0.00 0.00 57 1013.1
20260509153031 13 186 3.2 6.4 0.00 0.00 0.00 56 1013.0
20260509151526 13 165 3.2 11.3 0.00 0.00 0.00 58 1013.0
20260509150022 12 156 1.6 6.4 0.00 0.00 0.00 59 1012.8
20260509144520 12 196 1.6 4.8 0.00 0.00 0.00 61 1012.8
20260509143023 12 190 1.6 4.8 0.00 0.00 0.00 62 1012.6
20260509141522 11 188 1.6 4.8 0.00 0.00 0.00 62 1012.7
20260509140013 11 195 1.6 4.8 0.00 0.00 0.00 62 1012.7
20260509134512 11 200 0.0 3.2 0.00 0.00 0.00 63 1012.9
20260509133007 10 162 0.0 1.6 0.00 0.00 0.00 66 1013.1
20260509131508 10 162 0.0 1.6 0.00 0.00 0.00 67 1013.1
20260509130006 10 162 1.6 3.2 0.00 0.00 0.00 65 1013.0
20260509124505 10 162 0.0 3.2 0.00 0.00 0.00 63 1012.9
20260509123003 10 162 0.0 3.2 0.00 0.00 0.00 60 1013.0
20260509121502 10 162 0.0 1.6 0.00 0.00 0.00 61 1013.1
20260509120108 10 158 0.0 4.8 0.00 0.00 0.00 60 1013.4
20260509114606 10 180 0.0 3.2 0.00 0.00 0.00 60 1013.6
20260509113059 10 278 0.0 0.0 0.00 0.00 0.00 60 1013.6
20260509111558 10 278 0.0 1.6 0.00 0.00 0.00 60 1013.3
20260509110057 10 278 0.0 3.2 0.00 0.00 0.00 61 1013.4
20260509104559 10 236 0.0 1.6 0.00 0.00 0.00 60 1013.5
20260509103055 10 198 0.0 6.4 0.00 0.00 0.00 59 1013.0
20260509101555 9 228 1.6 6.4 0.00 0.00 0.00 58 1012.7
20260509100058 9 246 0.0 4.8 0.00 0.00 0.00 61 1012.9
20260509094554 9 198 0.0 6.4 0.00 0.00 0.00 61 1012.8
20260509093052 9 255 0.0 8.0 0.00 0.00 0.00 61 1013.0
20260509091550 9 42 1.6 4.8 0.00 0.00 0.00 61 1012.8
20260509090049 8 157 0.0 3.2 0.00 0.00 0.00 65 1012.9
20260509084553 8 227 0.0 3.2 0.00 0.00 0.00 66 1013.0
20260509083047 8 188 0.0 6.4 0.00 0.00 0.00 66 1013.0
20260509081548 8 238 1.6 8.0 0.00 0.00 0.00 66 1013.1
20260509080043 8 234 0.0 8.0 0.00 0.00 0.00 66 1013.2
20260509074545 8 227 1.6 6.4 0.00 0.00 0.00 67 1013.7
20260509073041 8 184 0.0 3.2 0.00 0.00 0.00 66 1013.3
20260509071544 8 190 1.6 3.2 0.00 0.00 0.00 66 1013.3
20260509070035 8 194 1.6 3.2 0.00 0.00 0.00 67 1013.7
20260509064533 8 194 1.6 3.2 0.00 0.00 0.00 67 1014.0